TimeCDT,TemperatureF,Dew PointF,Humidity,Sea Level PressureIn,VisibilityMPH,Wind Direction,Wind SpeedMPH,Gust SpeedMPH,PrecipitationIn,Events,Conditions,WindDirDegrees,DateUTC
12:15 AM,32.0,32.0,100,29.64,1.0,NE,20.7,26.5,N/A,Snow,Light Snow,50,2013-04-15 05:15:00
12:35 AM,32.0,32.0,100,29.63,1.0,NE,18.4,-,N/A,Snow,Light Snow,40,2013-04-15 05:35:00
12:55 AM,32.0,32.0,100,29.62,0.8,NE,23.0,-,N/A,Snow,Light Snow,40,2013-04-15 05:55:00
1:15 AM,32.0,32.0,100,29.61,0.8,NE,24.2,34.5,N/A,Snow,Light Snow,50,2013-04-15 06:15:00
1:35 AM,32.0,32.0,100,29.60,1.0,NE,26.5,32.2,N/A,Snow,Light Snow,40,2013-04-15 06:35:00
1:55 AM,32.0,32.0,100,29.59,1.2,NE,28.8,35.7,N/A,Snow,Light Snow,40,2013-04-15 06:55:00
2:15 AM,32.0,32.0,100,29.59,1.0,NNE,20.7,31.1,N/A,Snow,Light Snow,30,2013-04-15 07:15:00
2:35 AM,32.0,32.0,100,29.58,1.2,NE,23.0,26.5,N/A,Snow,Light Snow,40,2013-04-15 07:35:00
2:55 AM,32.0,32.0,100,29.58,1.2,NE,23.0,-,N/A,Snow,Light Snow,40,2013-04-15 07:55:00
3:15 AM,32.0,32.0,100,29.57,1.2,NNE,24.2,-,N/A,Snow,Light Snow,30,2013-04-15 08:15:00
3:35 AM,32.0,32.0,100,29.56,1.2,North,-9999.0,-,N/A,Snow,Light Snow,0,2013-04-15 08:35:00
3:55 AM,32.0,32.0,100,29.55,1.0,NNE,25.3,-,N/A,Snow,Light Snow,30,2013-04-15 08:55:00
4:15 AM,32.0,32.0,100,29.55,1.2,NNE,23.0,31.1,N/A,Snow,Light Snow,20,2013-04-15 09:15:00
4:35 AM,32.0,32.0,100,29.55,1.2,North,-9999.0,-,N/A,Snow,Light Snow,0,2013-04-15 09:35:00
4:55 AM,32.0,32.0,100,29.55,1.0,NNE,23.0,29.9,N/A,Snow,Light Snow,30,2013-04-15 09:55:00
5:15 AM,32.0,32.0,100,29.55,0.8,NNE,23.0,28.8,N/A,Snow,Light Snow,30,2013-04-15 10:15:00
5:35 AM,30.2,30.2,100,29.54,0.5,NNE,23.0,29.9,N/A,Snow,Snow,20,2013-04-15 10:35:00
5:55 AM,32.0,32.0,100,29.55,0.5,NNE,21.9,27.6,N/A,Snow,Snow,20,2013-04-15 10:55:00
6:15 AM,32.0,32.0,100,29.54,0.8,East,6.9,27.6,N/A,,Overcast,100,2013-04-15 11:15:00
6:35 AM,32.0,32.0,100,29.55,0.5,NNE,16.1,23.0,N/A,Rain,Heavy Rain,20,2013-04-15 11:35:00
6:55 AM,32.0,32.0,100,29.54,0.8,North,23.0,26.5,N/A,Rain,Rain,10,2013-04-15 11:55:00
7:15 AM,32.0,32.0,100,29.55,0.8,NNE,23.0,27.6,N/A,Rain,Rain,20,2013-04-15 12:15:00
7:35 AM,32.0,32.0,100,29.55,1.0,North,21.9,28.8,N/A,Rain,Rain,10,2013-04-15 12:35:00
7:55 AM,32.0,32.0,100,29.55,1.8,North,23.0,31.1,N/A,Rain,Rain,10,2013-04-15 12:55:00
8:15 AM,32.0,32.0,100,29.55,2.5,North,21.9,28.8,N/A,Rain,Light Rain,10,2013-04-15 13:15:00
8:35 AM,32.0,32.0,100,29.56,2.5,North,20.7,-,N/A,Rain,Light Rain,10,2013-04-15 13:35:00
8:55 AM,32.0,32.0,100,29.56,3.0,NNE,23.0,28.8,N/A,Rain,Light Rain,20,2013-04-15 13:55:00
9:15 AM,32.0,32.0,100,29.57,2.5,North,21.9,27.6,N/A,Rain,Light Rain,10,2013-04-15 14:15:00
9:35 AM,32.0,32.0,100,29.57,3.0,North,17.3,27.6,N/A,Rain,Light Rain,10,2013-04-15 14:35:00
9:55 AM,32.0,32.0,100,29.58,2.5,North,18.4,26.5,N/A,Rain,Light Rain,10,2013-04-15 14:55:00
10:15 AM,32.0,32.0,100,29.58,3.0,North,20.7,26.5,N/A,Rain,Light Rain,10,2013-04-15 15:15:00
10:35 AM,32.0,32.0,100,29.59,7.0,North,19.6,25.3,N/A,,Overcast,10,2013-04-15 15:35:00
10:55 AM,32.0,32.0,100,29.60,1.2,North,19.6,26.5,N/A,,Overcast,10,2013-04-15 15:55:00
11:15 AM,32.0,32.0,100,29.61,2.5,North,16.1,25.3,N/A,Rain,Light Rain,10,2013-04-15 16:15:00
11:35 AM,32.0,32.0,100,29.62,2.0,North,18.4,24.2,N/A,Rain,Light Rain,10,2013-04-15 16:35:00
11:55 AM,32.0,32.0,100,29.63,1.8,North,17.3,20.7,N/A,Rain,Light Rain,360,2013-04-15 16:55:00
12:15 PM,32.0,32.0,100,29.64,2.5,North,18.4,24.2,N/A,Rain,Light Rain,360,2013-04-15 17:15:00
12:35 PM,32.0,32.0,100,29.64,2.5,North,19.6,24.2,N/A,Rain,Light Rain,360,2013-04-15 17:35:00
12:55 PM,32.0,32.0,100,29.65,4.0,North,20.7,25.3,N/A,Rain,Light Rain,360,2013-04-15 17:55:00
1:15 PM,32.0,32.0,100,29.66,10.0,North,19.6,23.0,N/A,Rain,Light Rain,360,2013-04-15 18:15:00
1:35 PM,32.0,32.0,100,29.67,10.0,North,18.4,24.2,N/A,,Overcast,360,2013-04-15 18:35:00
1:55 PM,32.0,32.0,100,29.68,5.0,North,19.6,26.5,N/A,Rain,Light Rain,350,2013-04-15 18:55:00
2:15 PM,32.0,32.0,100,29.70,4.0,North,21.9,26.5,N/A,Rain,Light Rain,360,2013-04-15 19:15:00
2:35 PM,32.0,32.0,100,29.71,5.0,North,20.7,-,N/A,Rain,Light Rain,350,2013-04-15 19:35:00
2:55 PM,32.0,32.0,100,29.72,1.8,North,20.7,26.5,N/A,Snow,Light Snow,350,2013-04-15 19:55:00
3:15 PM,32.0,32.0,100,29.74,0.8,North,19.6,26.5,N/A,Snow,Light Snow,350,2013-04-15 20:15:00
3:35 PM,32.0,32.0,100,29.74,0.8,North,20.7,25.3,N/A,Snow,Light Snow,350,2013-04-15 20:35:00
3:55 PM,32.0,32.0,100,29.75,1.2,North,17.3,31.1,N/A,Snow,Light Snow,350,2013-04-15 20:55:00
4:15 PM,32.0,32.0,100,29.77,1.2,North,18.4,26.5,N/A,Snow,Light Snow,350,2013-04-15 21:15:00
4:35 PM,32.0,32.0,100,29.77,1.5,NNW,16.1,-,N/A,Snow,Light Snow,340,2013-04-15 21:35:00
4:55 PM,32.0,32.0,100,29.78,2.0,NNW,18.4,26.5,N/A,Snow,Light Snow,340,2013-04-15 21:55:00
5:15 PM,32.0,32.0,100,29.79,1.5,NNW,17.3,-,N/A,Snow,Light Snow,340,2013-04-15 22:15:00
5:35 PM,32.0,32.0,100,29.80,1.0,NNW,18.4,25.3,N/A,Snow,Light Snow,340,2013-04-15 22:35:00
5:55 PM,32.0,32.0,100,29.81,1.8,North,20.7,26.5,N/A,Snow,Light Snow,350,2013-04-15 22:55:00
6:15 PM,32.0,32.0,100,29.82,2.5,NNW,19.6,28.8,N/A,Snow,Light Snow,340,2013-04-15 23:15:00
6:55 PM,32.0,32.0,100,29.84,1.5,NNW,18.4,27.6,N/A,Snow,Light Snow,340,2013-04-15 23:55:00
7:15 PM,32.0,32.0,100,29.85,3.0,NNW,19.6,24.2,N/A,Rain,Light Rain,340,2013-04-16 00:15:00
7:35 PM,32.0,32.0,100,29.86,4.0,NNW,17.3,25.3,N/A,Snow,Light Snow,340,2013-04-16 00:35:00
7:55 PM,32.0,32.0,100,29.87,2.5,NNW,18.4,25.3,N/A,Snow,Light Snow,340,2013-04-16 00:55:00
8:15 PM,32.0,32.0,100,29.88,2.5,NNW,17.3,-,N/A,Snow,Light Snow,340,2013-04-16 01:15:00
8:35 PM,32.0,32.0,100,29.89,3.0,NNW,16.1,-,N/A,Snow,Light Snow,340,2013-04-16 01:35:00
8:55 PM,32.0,32.0,100,29.90,7.0,NNW,16.1,-,N/A,Rain,Light Rain,340,2013-04-16 01:55:00
9:35 PM,32.0,32.0,100,29.92,10.0,NNW,17.3,21.9,N/A,,Overcast,340,2013-04-16 02:35:00
9:55 PM,32.0,32.0,100,29.93,10.0,NNW,15.0,20.7,N/A,,Overcast,340,2013-04-16 02:55:00
10:15 PM,32.0,30.2,93,29.95,10.0,NNW,12.7,-,N/A,,Overcast,340,2013-04-16 03:15:00
10:35 PM,32.0,30.2,93,29.95,10.0,NNW,13.8,-,N/A,,Overcast,340,2013-04-16 03:35:00
10:55 PM,32.0,30.2,93,29.95,10.0,NNW,12.7,-,N/A,,Mostly Cloudy,340,2013-04-16 03:55:00
11:15 PM,32.0,32.0,100,29.95,10.0,NNW,11.5,-,N/A,,Overcast,340,2013-04-16 04:15:00
11:35 PM,32.0,32.0,100,29.97,10.0,NW,12.7,-,N/A,,Overcast,320,2013-04-16 04:35:00
11:55 PM,32.0,32.0,100,29.97,10.0,NW,11.5,-,N/A,,Overcast,310,2013-04-16 04:55:00